| time (UTC) | temp C | wind direction | speed KPH | gust KPH | rain 1hr cm | rain 24hr cm | rain mn cm | humidity % | barometer mb |
| 20260509053704 | 28 | 320 | 6.4 | 20.9 | 0.00 | 0.00 | 0.00 | 62 | 1003.0 |
| 20260509052704 | 28 | 340 | 6.4 | 20.9 | 0.00 | 0.00 | 0.00 | 64 | 1003.1 |
| 20260509051704 | 27 | 340 | 4.8 | 20.9 | 0.00 | 0.00 | 0.00 | 65 | 1003.1 |
| 20260509050704 | 27 | 10 | 9.7 | 19.3 | 0.00 | 0.00 | 0.00 | 66 | 1003.2 |
| 20260509045703 | 27 | 0 | 8.0 | 19.3 | 0.00 | 0.00 | 0.00 | 65 | 1003.4 |
| 20260509044704 | 27 | 0 | 8.0 | 19.3 | 0.00 | 0.00 | 0.00 | 65 | 1003.5 |
| 20260509043703 | 27 | 0 | 4.8 | 19.3 | 0.00 | 0.00 | 0.00 | 65 | 1003.6 |
| 20260509042704 | 26 | 330 | 8.0 | 19.3 | 0.00 | 0.00 | 0.00 | 65 | 1003.7 |
| 20260509041703 | 27 | 350 | 8.0 | 19.3 | 0.00 | 0.00 | 0.00 | 65 | 1003.8 |
| 20260509040703 | 27 | 340 | 6.4 | 19.3 | 0.00 | 0.00 | 0.00 | 65 | 1004.0 |
| 20260509035704 | 26 | 330 | 8.0 | 19.3 | 0.00 | 0.00 | 0.00 | 66 | 1004.2 |
| 20260509034703 | 26 | 310 | 8.0 | 19.3 | 0.00 | 0.00 | 0.00 | 66 | 1004.2 |
| 20260509033703 | 26 | 320 | 6.4 | 19.3 | 0.00 | 0.00 | 0.00 | 68 | 1004.4 |
| 20260509032703 | 25 | 0 | 8.0 | 19.3 | 0.00 | 0.00 | 0.00 | 69 | 1004.6 |
| 20260509031704 | 26 | 350 | 9.7 | 19.3 | 0.00 | 0.00 | 0.00 | 67 | 1004.7 |
| 20260509030703 | 26 | 0 | 8.0 | 19.3 | 0.00 | 0.00 | 0.00 | 67 | 1004.7 |
| 20260509025704 | 25 | 330 | 6.4 | 19.3 | 0.00 | 0.00 | 0.00 | 69 | 1004.8 |
| 20260509024703 | 25 | 320 | 8.0 | 19.3 | 0.00 | 0.00 | 0.00 | 68 | 1004.9 |
| 20260509023704 | 26 | 330 | 6.4 | 19.3 | 0.00 | 0.00 | 0.00 | 69 | 1005.0 |
| 20260509022704 | 25 | 320 | 6.4 | 19.3 | 0.00 | 0.00 | 0.00 | 71 | 1004.9 |
| 20260509021704 | 25 | 320 | 6.4 | 19.3 | 0.00 | 0.00 | 0.00 | 70 | 1005.1 |
| 20260509020703 | 25 | 350 | 6.4 | 17.7 | 0.00 | 0.00 | 0.00 | 70 | 1005.2 |
| 20260509015704 | 24 | 340 | 8.0 | 17.7 | 0.00 | 0.00 | 0.00 | 74 | 1005.3 |
| 20260509014704 | 23 | 330 | 6.4 | 17.7 | 0.00 | 0.00 | 0.00 | 73 | 1005.2 |
| 20260509013703 | 24 | 350 | 1.6 | 17.7 | 0.00 | 0.00 | 0.00 | 73 | 1005.1 |
| 20260509012703 | 23 | 350 | 8.0 | 17.7 | 0.00 | 0.00 | 0.00 | 74 | 1005.0 |
| 20260509011704 | 23 | 0 | 6.4 | 17.7 | 0.00 | 0.00 | 0.00 | 74 | 1005.1 |
| 20260509010704 | 23 | 0 | 6.4 | 14.5 | 0.00 | 0.00 | 0.00 | 74 | 1005.2 |
| 20260509005703 | 23 | 350 | 6.4 | 14.5 | 0.00 | 0.00 | 0.00 | 75 | 1005.2 |
| 20260509004703 | 23 | 350 | 6.4 | 14.5 | 0.00 | 0.00 | 0.00 | 76 | 1005.2 |
| 20260509003703 | 23 | 10 | 6.4 | 14.5 | 0.00 | 0.00 | 0.00 | 75 | 1005.0 |
| 20260509002704 | 23 | 330 | 3.2 | 14.5 | 0.00 | 0.00 | 0.00 | 76 | 1004.9 |
| 20260509001703 | 23 | 340 | 3.2 | 14.5 | 0.00 | 0.00 | 0.00 | 76 | 1004.8 |
| 20260509000704 | 22 | 330 | 4.8 | 17.7 | 0.00 | 0.00 | 0.00 | 76 | 1004.7 |
| 20260508235704 | 22 | 330 | 4.8 | 17.7 | 0.00 | 0.00 | 0.00 | 77 | 1004.6 |
| 20260508234703 | 22 | 350 | 4.8 | 17.7 | 0.00 | 0.00 | 0.00 | 78 | 1004.5 |
| 20260508233703 | 22 | 340 | 4.8 | 17.7 | 0.00 | 0.00 | 0.00 | 78 | 1004.6 |
| 20260508232703 | 22 | 0 | 4.8 | 17.7 | 0.00 | 0.00 | 0.00 | 79 | 1004.5 |
| 20260508231703 | 22 | 20 | 6.4 | 17.7 | 0.00 | 0.00 | 0.00 | 79 | 1004.4 |
| 20260508230703 | 22 | 20 | 4.8 | 17.7 | 0.00 | 0.00 | 0.00 | 80 | 1004.3 |
| 20260508225703 | 22 | 10 | 6.4 | 17.7 | 0.00 | 0.00 | 0.00 | 80 | 1004.4 |
| 20260508224703 | 22 | 10 | 6.4 | 17.7 | 0.00 | 0.00 | 0.00 | 80 | 1004.5 |
| 20260508223703 | 22 | 0 | 8.0 | 17.7 | 0.00 | 0.00 | 0.00 | 80 | 1004.4 |
| 20260508222704 | 22 | 350 | 8.0 | 17.7 | 0.00 | 0.00 | 0.00 | 80 | 1004.3 |
| 20260508221704 | 22 | 0 | 4.8 | 17.7 | 0.00 | 0.00 | 0.00 | 80 | 1004.1 |
| 20260508220703 | 22 | 340 | 3.2 | 20.9 | 0.00 | 0.00 | 0.00 | 80 | 1004.0 |
| 20260508215703 | 22 | 330 | 6.4 | 20.9 | 0.00 | 0.00 | 0.00 | 79 | 1004.1 |
| 20260508214703 | 22 | 350 | 3.2 | 20.9 | 0.00 | 0.00 | 0.00 | 79 | 1003.8 |
| 20260508213703 | 22 | 10 | 3.2 | 20.9 | 0.00 | 0.00 | 0.00 | 80 | 1003.7 |
| 20260508212703 | 22 | 20 | 6.4 | 20.9 | 0.00 | 0.00 | 0.00 | 80 | 1003.6 |
| 20260508211704 | 22 | 0 | 9.7 | 20.9 | 0.00 | 0.00 | 0.00 | 80 | 1003.6 |
| 20260508210703 | 22 | 10 | 4.8 | 17.7 | 0.00 | 0.00 | 0.00 | 80 | 1003.6 |
| 20260508205703 | 21 | 10 | 4.8 | 17.7 | 0.00 | 0.00 | 0.00 | 81 | 1003.6 |
| 20260508204703 | 21 | 0 | 8.0 | 17.7 | 0.00 | 0.00 | 0.00 | 81 | 1003.4 |
| 20260508203703 | 21 | 10 | 9.7 | 17.7 | 0.00 | 0.00 | 0.00 | 82 | 1003.3 |
| 20260508202703 | 21 | 350 | 8.0 | 17.7 | 0.00 | 0.00 | 0.00 | 83 | 1003.4 |
| 20260508201703 | 22 | 0 | 6.4 | 17.7 | 0.00 | 0.00 | 0.00 | 82 | 1003.3 |
| 20260508200705 | 22 | 350 | 6.4 | 20.9 | 0.00 | 0.00 | 0.00 | 80 | 1003.2 |
| 20260508195703 | 22 | 350 | 4.8 | 20.9 | 0.00 | 0.00 | 0.00 | 79 | 1003.1 |
| 20260508194703 | 22 | 0 | 6.4 | 20.9 | 0.00 | 0.00 | 0.00 | 79 | 1003.1 |
| 20260508193703 | 22 | 20 | 3.2 | 20.9 | 0.00 | 0.00 | 0.00 | 78 | 1003.2 |
| 20260508192703 | 22 | 350 | 6.4 | 20.9 | 0.00 | 0.00 | 0.00 | 79 | 1003.3 |
| 20260508191704 | 22 | 340 | 8.0 | 20.9 | 0.00 | 0.00 | 0.00 | 78 | 1003.2 |
| 20260508190703 | 22 | 320 | 6.4 | 17.7 | 0.00 | 0.00 | 0.00 | 78 | 1003.1 |
| 20260508185703 | 22 | 330 | 3.2 | 17.7 | 0.00 | 0.00 | 0.00 | 77 | 1003.0 |
| 20260508184703 | 22 | 320 | 3.2 | 17.7 | 0.00 | 0.00 | 0.00 | 78 | 1003.0 |
| 20260508183703 | 22 | 320 | 3.2 | 17.7 | 0.00 | 0.00 | 0.00 | 77 | 1003.1 |
| 20260508182703 | 22 | 320 | 1.6 | 17.7 | 0.00 | 0.00 | 0.00 | 77 | 1003.2 |
| 20260508181703 | 22 | 330 | 3.2 | 17.7 | 0.00 | 0.00 | 0.00 | 77 | 1003.1 |
| 20260508180704 | 22 | 350 | 6.4 | 17.7 | 0.00 | 0.00 | 0.00 | 77 | 1003.1 |
| 20260508175703 | 22 | 10 | 6.4 | 17.7 | 0.00 | 0.00 | 0.00 | 77 | 1003.2 |
| 20260508174704 | 22 | 0 | 6.4 | 17.7 | 0.00 | 0.00 | 0.00 | 77 | 1003.2 |
| 20260508173703 | 22 | 0 | 4.8 | 17.7 | 0.00 | 0.00 | 0.00 | 77 | 1003.4 |
| 20260508172703 | 22 | 350 | 6.4 | 17.7 | 0.00 | 0.00 | 0.00 | 77 | 1003.4 |
| 20260508171703 | 22 | 350 | 6.4 | 17.7 | 0.00 | 0.00 | 0.00 | 76 | 1003.6 |
| 20260508170704 | 22 | 0 | 8.0 | 19.3 | 0.00 | 0.00 | 0.00 | 77 | 1003.5 |
| 20260508165703 | 22 | 340 | 6.4 | 19.3 | 0.00 | 0.00 | 0.00 | 77 | 1003.7 |
| 20260508164704 | 23 | 350 | 4.8 | 19.3 | 0.00 | 0.00 | 0.00 | 76 | 1003.7 |
| 20260508163704 | 22 | 320 | 4.8 | 19.3 | 0.00 | 0.00 | 0.00 | 76 | 1003.7 |
| 20260508162703 | 23 | 330 | 6.4 | 19.3 | 0.00 | 0.00 | 0.00 | 76 | 1003.8 |
| 20260508161704 | 23 | 0 | 4.8 | 19.3 | 0.00 | 0.00 | 0.00 | 76 | 1003.8 |
| 20260508160704 | 22 | 350 | 8.0 | 16.1 | 0.00 | 0.00 | 0.00 | 77 | 1003.8 |
| 20260508155703 | 23 | 340 | 4.8 | 16.1 | 0.00 | 0.00 | 0.00 | 77 | 1003.9 |
| 20260508154704 | 22 | 350 | 3.2 | 16.1 | 0.00 | 0.00 | 0.00 | 77 | 1004.0 |
| 20260508153703 | 23 | 0 | 9.7 | 16.1 | 0.00 | 0.00 | 0.00 | 77 | 1004.1 |
| 20260508152703 | 23 | 0 | 8.0 | 16.1 | 0.00 | 0.00 | 0.00 | 76 | 1004.1 |
| 20260508151704 | 23 | 10 | 6.4 | 16.1 | 0.00 | 0.00 | 0.00 | 76 | 1004.1 |
| 20260508150704 | 23 | 340 | 4.8 | 17.7 | 0.00 | 0.00 | 0.00 | 75 | 1004.2 |
| 20260508145704 | 23 | 320 | 4.8 | 17.7 | 0.00 | 0.00 | 0.00 | 75 | 1004.2 |
| 20260508144703 | 23 | 320 | 4.8 | 17.7 | 0.00 | 0.00 | 0.00 | 75 | 1004.1 |
| 20260508143704 | 23 | 0 | 3.2 | 17.7 | 0.00 | 0.00 | 0.00 | 75 | 1003.9 |
| 20260508142704 | 23 | 10 | 6.4 | 17.7 | 0.00 | 0.00 | 0.00 | 76 | 1003.8 |
| 20260508141704 | 23 | 350 | 8.0 | 17.7 | 0.00 | 0.00 | 0.00 | 76 | 1003.8 |
| 20260508140703 | 23 | 350 | 6.4 | 20.9 | 0.00 | 0.00 | 0.00 | 75 | 1003.7 |
| 20260508135704 | 23 | 330 | 6.4 | 20.9 | 0.00 | 0.00 | 0.00 | 75 | 1003.7 |
| 20260508134704 | 24 | 10 | 4.8 | 20.9 | 0.00 | 0.00 | 0.00 | 75 | 1003.5 |
| 20260508133703 | 24 | 0 | 4.8 | 20.9 | 0.00 | 0.00 | 0.00 | 75 | 1003.4 |
| 20260508132704 | 24 | 350 | 4.8 | 20.9 | 0.00 | 0.00 | 0.00 | 74 | 1003.4 |
| 20260508131703 | 24 | 340 | 6.4 | 20.9 | 0.00 | 0.00 | 0.00 | 74 | 1003.2 |
| 20260508130703 | 24 | 10 | 8.0 | 22.5 | 0.00 | 0.00 | 0.00 | 74 | 1003.2 |
| 20260508125703 | 24 | 340 | 9.7 | 22.5 | 0.00 | 0.00 | 0.00 | 74 | 1003.0 |
| 20260508124704 | 25 | 340 | 6.4 | 22.5 | 0.00 | 0.00 | 0.00 | 74 | 1002.9 |
| 20260508123703 | 25 | 0 | 8.0 | 22.5 | 0.00 | 0.00 | 0.00 | 74 | 1002.8 |
| 20260508122704 | 25 | 10 | 6.4 | 22.5 | 0.00 | 0.00 | 0.00 | 74 | 1002.8 |
| 20260508121704 | 25 | 0 | 8.0 | 22.5 | 0.00 | 0.00 | 0.00 | 74 | 1002.8 |
| 20260508120703 | 25 | 340 | 9.7 | 24.1 | 0.00 | 0.00 | 0.00 | 74 | 1002.6 |
| 20260508115703 | 25 | 350 | 6.4 | 24.1 | 0.00 | 0.00 | 0.00 | 73 | 1002.4 |
| 20260508114704 | 25 | 350 | 8.0 | 24.1 | 0.00 | 0.00 | 0.00 | 73 | 1002.3 |
| 20260508113704 | 25 | 0 | 8.0 | 24.1 | 0.00 | 0.00 | 0.00 | 72 | 1002.3 |
| 20260508112704 | 25 | 10 | 9.7 | 24.1 | 0.00 | 0.00 | 0.00 | 71 | 1002.2 |
| 20260508111704 | 26 | 350 | 11.3 | 24.1 | 0.00 | 0.00 | 0.00 | 71 | 1002.2 |
| 20260508110704 | 26 | 350 | 11.3 | 29.0 | 0.00 | 0.00 | 0.00 | 71 | 1001.9 |
| 20260508105704 | 26 | 10 | 8.0 | 29.0 | 0.00 | 0.00 | 0.00 | 70 | 1001.8 |
| 20260508104704 | 26 | 350 | 8.0 | 29.0 | 0.00 | 0.00 | 0.00 | 70 | 1001.8 |
| 20260508103703 | 26 | 0 | 8.0 | 29.0 | 0.00 | 0.00 | 0.00 | 69 | 1001.7 |
| 20260508102704 | 26 | 0 | 8.0 | 29.0 | 0.00 | 0.00 | 0.00 | 70 | 1001.7 |
| 20260508101703 | 26 | 0 | 9.7 | 29.0 | 0.00 | 0.00 | 0.00 | 69 | 1001.7 |
| 20260508100703 | 27 | 350 | 8.0 | 24.1 | 0.00 | 0.00 | 0.00 | 68 | 1001.5 |
| 20260508095704 | 27 | 0 | 11.3 | 24.1 | 0.00 | 0.00 | 0.00 | 68 | 1001.3 |
| 20260508094704 | 27 | 350 | 9.7 | 24.1 | 0.00 | 0.00 | 0.00 | 67 | 1001.3 |
| 20260508093703 | 27 | 0 | 11.3 | 24.1 | 0.00 | 0.00 | 0.00 | 66 | 1001.3 |
| 20260508092703 | 28 | 0 | 8.0 | 24.1 | 0.00 | 0.00 | 0.00 | 65 | 1001.1 |
| 20260508091703 | 28 | 0 | 8.0 | 24.1 | 0.00 | 0.00 | 0.00 | 64 | 1001.0 |
| 20260508090703 | 28 | 0 | 11.3 | 27.4 | 0.00 | 0.00 | 0.00 | 64 | 1001.0 |
| 20260508085704 | 28 | 340 | 9.7 | 27.4 | 0.00 | 0.00 | 0.00 | 66 | 1000.8 |
| 20260508084704 | 29 | 0 | 9.7 | 27.4 | 0.00 | 0.00 | 0.00 | 63 | 1000.8 |
| 20260508083703 | 30 | 10 | 8.0 | 27.4 | 0.00 | 0.00 | 0.00 | 61 | 1000.8 |
| 20260508082704 | 30 | 350 | 8.0 | 27.4 | 0.00 | 0.00 | 0.00 | 61 | 1000.6 |
| 20260508081703 | 29 | 330 | 8.0 | 27.4 | 0.00 | 0.00 | 0.00 | 58 | 1000.5 |
| 20260508080704 | 29 | 320 | 8.0 | 24.1 | 0.00 | 0.00 | 0.00 | 58 | 1000.7 |
| 20260508075704 | 30 | 340 | 8.0 | 0.0 | 0.00 | 0.00 | 0.00 | 58 | 1000.8 |
| 20260508064703 | 31 | 10 | 11.3 | 24.1 | 0.00 | 0.00 | 0.00 | 59 | 1001.0 |
| 20260508063703 | 31 | 10 | 9.7 | 24.1 | 0.00 | 0.00 | 0.00 | 60 | 1001.1 |
| 20260508062703 | 31 | 0 | 8.0 | 24.1 | 0.00 | 0.00 | 0.00 | 63 | 1001.2 |
| 20260508061704 | 30 | 340 | 4.8 | 24.1 | 0.00 | 0.00 | 0.00 | 63 | 1001.3 |
| 20260508060704 | 30 | 330 | 9.7 | 20.9 | 0.00 | 0.00 | 0.00 | 62 | 1001.3 |
| 20260508055704 | 30 | 310 | 8.0 | 20.9 | 0.00 | 0.00 | 0.00 | 58 | 1001.4 |
| 20260508054705 | 30 | 290 | 8.0 | 20.9 | 0.00 | 0.00 | 0.00 | 58 | 1001.6 |